| time (UTC) | temp C | wind direction | speed KPH | gust KPH | rain 1hr cm | rain 24hr cm | rain mn cm | humidity % | barometer mb |
| 20260503220800 | 18 | 266 | 11.3 | 20.9 | 0.00 | 0.00 | 0.00 | 63 | 1013.4 |
| 20260503220314 | 17 | 216 | 6.4 | 17.7 | 0.00 | 0.00 | 0.00 | 64 | 1013.5 |
| 20260503215814 | 18 | 235 | 8.0 | 19.3 | 0.00 | 0.00 | 0.00 | 62 | 1013.5 |
| 20260503215259 | 18 | 269 | 12.9 | 20.9 | 0.00 | 0.00 | 0.00 | 62 | 1013.5 |
| 20260503214810 | 18 | 237 | 9.7 | 20.9 | 0.00 | 0.00 | 0.00 | 62 | 1013.5 |
| 20260503214252 | 18 | 253 | 8.0 | 22.5 | 0.00 | 0.00 | 0.00 | 61 | 1013.5 |
| 20260503213758 | 18 | 246 | 8.0 | 22.5 | 0.00 | 0.00 | 0.00 | 60 | 1013.5 |
| 20260503213304 | 17 | 281 | 12.9 | 22.5 | 0.00 | 0.00 | 0.00 | 61 | 1013.6 |
| 20260503212815 | 17 | 263 | 11.3 | 22.5 | 0.00 | 0.00 | 0.00 | 61 | 1013.6 |
| 20260503212320 | 18 | 206 | 11.3 | 22.5 | 0.00 | 0.00 | 0.00 | 60 | 1013.6 |
| 20260503211819 | 17 | 242 | 12.9 | 22.5 | 0.00 | 0.00 | 0.00 | 60 | 1013.7 |
| 20260503211320 | 18 | 248 | 12.9 | 22.5 | 0.00 | 0.00 | 0.00 | 59 | 1013.7 |
| 20260503210818 | 18 | 220 | 11.3 | 17.7 | 0.00 | 0.00 | 0.00 | 60 | 1013.7 |
| 20260503210318 | 18 | 221 | 6.4 | 22.5 | 0.00 | 0.00 | 0.00 | 61 | 1013.7 |
| 20260503205821 | 18 | 308 | 11.3 | 22.5 | 0.00 | 0.00 | 0.00 | 62 | 1013.7 |
| 20260503205300 | 18 | 253 | 14.5 | 22.5 | 0.00 | 0.00 | 0.00 | 61 | 1013.7 |
| 20260503204834 | 18 | 219 | 9.7 | 16.1 | 0.00 | 0.00 | 0.00 | 61 | 1013.8 |
| 20260503204316 | 18 | 314 | 8.0 | 19.3 | 0.00 | 0.00 | 0.00 | 61 | 1013.8 |
| 20260503203803 | 18 | 269 | 6.4 | 19.3 | 0.00 | 0.00 | 0.00 | 62 | 1013.8 |
| 20260503203305 | 18 | 222 | 6.4 | 17.7 | 0.00 | 0.00 | 0.00 | 60 | 1013.8 |
| 20260503202756 | 18 | 229 | 6.4 | 17.7 | 0.00 | 0.00 | 0.00 | 59 | 1013.8 |
| 20260503202306 | 18 | 228 | 8.0 | 22.5 | 0.00 | 0.00 | 0.00 | 60 | 1013.8 |
| 20260503201812 | 18 | 229 | 11.3 | 22.5 | 0.00 | 0.00 | 0.00 | 59 | 1014.0 |
| 20260503201302 | 18 | 257 | 8.0 | 17.7 | 0.00 | 0.00 | 0.00 | 58 | 1014.0 |
| 20260503200819 | 18 | 218 | 4.8 | 17.7 | 0.00 | 0.00 | 0.00 | 60 | 1014.0 |
| 20260503200319 | 18 | 269 | 9.7 | 14.5 | 0.00 | 0.00 | 0.00 | 58 | 1014.0 |
| 20260503195819 | 18 | 290 | 8.0 | 17.7 | 0.00 | 0.00 | 0.00 | 55 | 1014.0 |
| 20260503195337 | 18 | 261 | 9.7 | 14.5 | 0.00 | 0.00 | 0.00 | 58 | 1014.0 |
| 20260503194818 | 18 | 205 | 6.4 | 14.5 | 0.00 | 0.00 | 0.00 | 60 | 1014.1 |
| 20260503194336 | 17 | 259 | 8.0 | 17.7 | 0.00 | 0.00 | 0.00 | 60 | 1014.1 |
| 20260503193814 | 17 | 255 | 9.7 | 19.3 | 0.00 | 0.00 | 0.00 | 59 | 1014.1 |
| 20260503193315 | 18 | 284 | 9.7 | 19.3 | 0.00 | 0.00 | 0.00 | 60 | 1014.2 |
| 20260503192800 | 17 | 221 | 9.7 | 20.9 | 0.00 | 0.00 | 0.00 | 61 | 1014.2 |
| 20260503192318 | 18 | 298 | 9.7 | 20.9 | 0.00 | 0.00 | 0.00 | 58 | 1014.2 |
| 20260503191840 | 18 | 257 | 11.3 | 20.9 | 0.00 | 0.00 | 0.00 | 60 | 1014.3 |
| 20260503191317 | 18 | 195 | 4.8 | 12.9 | 0.00 | 0.00 | 0.00 | 63 | 1014.3 |
| 20260503190817 | 18 | 249 | 8.0 | 12.9 | 0.00 | 0.00 | 0.00 | 61 | 1014.3 |
| 20260503190317 | 17 | 219 | 9.7 | 19.3 | 0.00 | 0.00 | 0.00 | 61 | 1014.4 |
| 20260503185758 | 17 | 225 | 11.3 | 19.3 | 0.00 | 0.00 | 0.00 | 60 | 1014.4 |
| 20260503185314 | 18 | 288 | 4.8 | 17.7 | 0.00 | 0.00 | 0.00 | 62 | 1014.4 |
| 20260503184834 | 17 | 209 | 9.7 | 17.7 | 0.00 | 0.00 | 0.00 | 64 | 1014.5 |
| 20260503184312 | 17 | 235 | 4.8 | 16.1 | 0.00 | 0.00 | 0.00 | 64 | 1014.5 |
| 20260503183821 | 17 | 250 | 4.8 | 16.1 | 0.00 | 0.00 | 0.00 | 61 | 1014.5 |
| 20260503183325 | 18 | 149 | 6.4 | 11.3 | 0.00 | 0.00 | 0.00 | 59 | 1014.5 |
| 20260503182814 | 18 | 273 | 6.4 | 11.3 | 0.00 | 0.00 | 0.00 | 61 | 1014.5 |
| 20260503182256 | 18 | 235 | 4.8 | 14.5 | 0.00 | 0.00 | 0.00 | 64 | 1014.5 |
| 20260503181802 | 17 | 240 | 6.4 | 14.5 | 0.00 | 0.00 | 0.00 | 63 | 1014.5 |
| 20260503181312 | 17 | 224 | 4.8 | 11.3 | 0.00 | 0.00 | 0.00 | 65 | 1014.5 |
| 20260503180752 | 17 | 288 | 4.8 | 11.3 | 0.00 | 0.00 | 0.00 | 65 | 1014.5 |
| 20260503180322 | 17 | 240 | 6.4 | 11.3 | 0.00 | 0.00 | 0.00 | 67 | 1014.6 |
| 20260503175823 | 17 | 250 | 4.8 | 11.3 | 0.00 | 0.00 | 0.00 | 67 | 1014.6 |
| 20260503175305 | 17 | 341 | 4.8 | 12.9 | 0.00 | 0.00 | 0.00 | 69 | 1014.6 |
| 20260503174816 | 16 | 266 | 4.8 | 12.9 | 0.00 | 0.00 | 0.00 | 69 | 1014.6 |
| 20260503174321 | 16 | 293 | 3.2 | 14.5 | 0.00 | 0.00 | 0.00 | 71 | 1014.6 |
| 20260503173818 | 16 | 233 | 8.0 | 14.5 | 0.00 | 0.00 | 0.00 | 71 | 1014.6 |
| 20260503173257 | 16 | 271 | 6.4 | 12.9 | 0.00 | 0.00 | 0.00 | 71 | 1014.5 |
| 20260503172803 | 16 | 265 | 6.4 | 12.9 | 0.00 | 0.00 | 0.00 | 71 | 1014.5 |
| 20260503172315 | 16 | 240 | 4.8 | 12.9 | 0.00 | 0.00 | 0.00 | 71 | 1014.5 |
| 20260503171758 | 16 | 226 | 6.4 | 12.9 | 0.00 | 0.00 | 0.00 | 70 | 1014.2 |
| 20260503171308 | 16 | 262 | 4.8 | 11.3 | 0.00 | 0.00 | 0.00 | 70 | 1014.2 |
| 20260503170754 | 16 | 202 | 8.0 | 11.3 | 0.00 | 0.00 | 0.00 | 69 | 1014.2 |
| 20260503170301 | 16 | 223 | 3.2 | 11.3 | 0.00 | 0.00 | 0.00 | 70 | 1014.1 |
| 20260503150823 | 15 | 242 | 4.8 | 8.0 | 0.00 | 0.00 | 0.00 | 74 | 1013.5 |
| 20260503150310 | 15 | 256 | 3.2 | 8.0 | 0.00 | 0.00 | 0.00 | 75 | 1013.5 |
| 20260503131318 | -17 | 0.0 | 0.0 | 0.00 | 0.00 | 0.00 | 1012.5 | ||
| 20260503130756 | -17 | 0.0 | 0.0 | 0.00 | 0.00 | 0.00 | 1012.5 | ||
| 20260503130321 | -17 | 0.0 | 0.0 | 0.00 | 0.00 | 0.00 | 1012.5 | ||
| 20260503110815 | 15 | 282 | 0.0 | 0.0 | 0.00 | 0.00 | 0.00 | 78 | 1012.4 |
| 20260503110315 | 15 | 282 | 0.0 | 0.0 | 0.00 | 0.00 | 0.00 | 77 | 1012.5 |
| 20260503090336 | 15 | 246 | 3.2 | 4.8 | 0.00 | 0.00 | 0.00 | 76 | 1013.0 |
| 20260503081300 | 15 | 235 | 3.2 | 8.0 | 0.00 | 0.00 | 0.00 | 77 | 1013.1 |
| 20260503080805 | 15 | 216 | 3.2 | 8.0 | 0.00 | 0.00 | 0.00 | 77 | 1013.1 |
| 20260503080332 | 15 | 207 | 3.2 | 8.0 | 0.00 | 0.00 | 0.00 | 77 | 1013.0 |
| 20260503072812 | 15 | 196 | 1.6 | 4.8 | 0.00 | 0.00 | 0.00 | 79 | 1012.9 |
| 20260503072305 | 15 | 234 | 1.6 | 11.3 | 0.00 | 0.00 | 0.00 | 79 | 1012.9 |
| 20260503071815 | 15 | 207 | 6.4 | 11.3 | 0.00 | 0.00 | 0.00 | 79 | 1012.8 |
| 20260503071335 | 15 | 204 | 6.4 | 9.7 | 0.00 | 0.00 | 0.00 | 79 | 1012.8 |
| 20260503070756 | 15 | 217 | 4.8 | 9.7 | 0.00 | 0.00 | 0.00 | 80 | 1012.8 |
| 20260503070329 | 15 | 207 | 4.8 | 9.7 | 0.00 | 0.00 | 0.00 | 80 | 1012.6 |
| 20260503060320 | 15 | 277 | 4.8 | 8.0 | 0.00 | 0.00 | 0.00 | 82 | 1012.6 |
| 20260503054829 | 15 | 319 | 1.6 | 9.7 | 0.00 | 0.00 | 0.00 | 83 | 1012.7 |
| 20260503054255 | 15 | 300 | 3.2 | 9.7 | 0.00 | 0.00 | 0.00 | 83 | 1012.7 |
| 20260503053753 | 15 | 287 | 3.2 | 9.7 | 0.00 | 0.00 | 0.00 | 83 | 1012.7 |
| 20260503053254 | 15 | 269 | 4.8 | 8.0 | 0.00 | 0.00 | 0.00 | 83 | 1012.8 |
| 20260503052756 | 15 | 286 | 1.6 | 11.3 | 0.00 | 0.00 | 0.00 | 83 | 1012.8 |
| 20260503052305 | 15 | 231 | 6.4 | 11.3 | 0.00 | 0.00 | 0.00 | 83 | 1012.8 |
| 20260503051812 | 15 | 247 | 3.2 | 6.4 | 0.00 | 0.00 | 0.00 | 84 | 1012.7 |
| 20260503051255 | 15 | 253 | 3.2 | 9.7 | 0.00 | 0.00 | 0.00 | 84 | 1012.7 |
| 20260503050806 | 15 | 283 | 6.4 | 9.7 | 0.00 | 0.00 | 0.00 | 84 | 1012.7 |
| 20260503050254 | 15 | 288 | 3.2 | 11.3 | 0.00 | 0.00 | 0.00 | 84 | 1012.9 |
| 20260503045820 | 15 | 266 | 6.4 | 11.3 | 0.00 | 0.00 | 0.00 | 84 | 1012.9 |
| 20260503045319 | 15 | 239 | 4.8 | 11.3 | 0.00 | 0.00 | 0.00 | 84 | 1012.9 |
| 20260503044818 | 15 | 271 | 4.8 | 9.7 | 0.00 | 0.00 | 0.00 | 84 | 1012.6 |
| 20260503044315 | 15 | 250 | 1.6 | 9.7 | 0.00 | 0.00 | 0.00 | 84 | 1012.6 |
| 20260503043835 | 15 | 218 | 4.8 | 9.7 | 0.00 | 0.00 | 0.00 | 84 | 1012.6 |
| 20260503043310 | 15 | 263 | 3.2 | 9.7 | 0.00 | 0.00 | 0.00 | 84 | 1012.4 |
| 20260503042819 | 15 | 244 | 4.8 | 9.7 | 0.00 | 0.00 | 0.00 | 84 | 1012.4 |
| 20260503042305 | 15 | 298 | 3.2 | 9.7 | 0.00 | 0.00 | 0.00 | 84 | 1012.4 |
| 20260503041816 | 15 | 271 | 6.4 | 9.7 | 0.00 | 0.00 | 0.00 | 84 | 1012.0 |
| 20260503041324 | 15 | 271 | 4.8 | 11.3 | 0.00 | 0.00 | 0.00 | 85 | 1012.0 |
| 20260503040759 | 15 | 271 | 3.2 | 11.3 | 0.00 | 0.00 | 0.00 | 85 | 1012.0 |
| 20260503040306 | 15 | 248 | 4.8 | 11.3 | 0.00 | 0.00 | 0.00 | 85 | 1011.9 |
| 20260503035810 | 15 | 281 | 4.8 | 9.7 | 0.00 | 0.00 | 0.00 | 85 | 1011.9 |
| 20260503035253 | 15 | 242 | 6.4 | 11.3 | 0.00 | 0.00 | 0.00 | 84 | 1011.9 |
| 20260503034805 | 15 | 236 | 4.8 | 11.3 | 0.00 | 0.00 | 0.00 | 84 | 1011.6 |
| 20260503034311 | 15 | 258 | 4.8 | 11.3 | 0.00 | 0.00 | 0.00 | 84 | 1011.6 |
| 20260503033753 | 15 | 269 | 3.2 | 9.7 | 0.00 | 0.00 | 0.00 | 83 | 1011.6 |
| 20260503033306 | 15 | 223 | 3.2 | 11.3 | 0.00 | 0.00 | 0.00 | 83 | 1011.4 |
| 20260503032815 | 15 | 260 | 4.8 | 11.3 | 0.00 | 0.00 | 0.00 | 83 | 1011.4 |
| 20260503032256 | 15 | 285 | 4.8 | 9.7 | 0.00 | 0.00 | 0.00 | 83 | 1011.4 |
| 20260503031820 | 15 | 296 | 3.2 | 9.7 | 0.00 | 0.00 | 0.00 | 83 | 1011.2 |
| 20260503031309 | 15 | 294 | 4.8 | 9.7 | 0.00 | 0.00 | 0.00 | 82 | 1011.2 |
| 20260503030756 | 15 | 304 | 6.4 | 9.7 | 0.00 | 0.00 | 0.00 | 82 | 1011.2 |
| 20260503030307 | 15 | 270 | 3.2 | 8.0 | 0.00 | 0.00 | 0.00 | 82 | 1010.9 |
| 20260503025759 | 15 | 263 | 3.2 | 8.0 | 0.00 | 0.00 | 0.00 | 82 | 1010.9 |
| 20260503025305 | 15 | 233 | 4.8 | 12.9 | 0.00 | 0.00 | 0.00 | 82 | 1010.9 |
| 20260503024810 | 15 | 242 | 4.8 | 12.9 | 0.00 | 0.00 | 0.00 | 82 | 1010.7 |
| 20260503024315 | 15 | 279 | 6.4 | 12.9 | 0.00 | 0.00 | 0.00 | 81 | 1010.7 |
| 20260503023805 | 15 | 267 | 3.2 | 16.1 | 0.00 | 0.00 | 0.00 | 81 | 1010.7 |
| 20260503023313 | 15 | 221 | 3.2 | 16.1 | 0.00 | 0.00 | 0.00 | 81 | 1010.6 |
| 20260503022755 | 15 | 246 | 9.7 | 14.5 | 0.00 | 0.00 | 0.00 | 81 | 1010.6 |
| 20260503022305 | 15 | 250 | 4.8 | 14.5 | 0.00 | 0.00 | 0.00 | 80 | 1010.6 |
| 20260503021751 | 16 | 281 | 8.0 | 14.5 | 0.00 | 0.00 | 0.00 | 80 | 1010.5 |
| 20260503021321 | 16 | 281 | 6.4 | 14.5 | 0.00 | 0.00 | 0.00 | 80 | 1010.5 |
| 20260503020817 | 16 | 253 | 9.7 | 14.5 | 0.00 | 0.00 | 0.00 | 80 | 1010.5 |
| 20260503020343 | 16 | 253 | 8.0 | 14.5 | 0.00 | 0.00 | 0.00 | 80 | 1010.4 |
| 20260503015801 | 16 | 219 | 4.8 | 14.5 | 0.00 | 0.00 | 0.00 | 80 | 1010.4 |
| 20260503015305 | 16 | 232 | 8.0 | 16.1 | 0.00 | 0.00 | 0.00 | 79 | 1010.4 |
| 20260503014758 | 16 | 240 | 9.7 | 20.9 | 0.00 | 0.00 | 0.00 | 79 | 1010.5 |
| 20260503014327 | 16 | 221 | 9.7 | 20.9 | 0.00 | 0.00 | 0.00 | 78 | 1010.5 |
| 20260503013754 | 16 | 236 | 8.0 | 20.9 | 0.00 | 0.00 | 0.00 | 78 | 1010.5 |
| 20260503013300 | 16 | 278 | 9.7 | 19.3 | 0.00 | 0.00 | 0.00 | 76 | 1010.5 |
| 20260503012806 | 16 | 283 | 11.3 | 17.7 | 0.00 | 0.00 | 0.00 | 76 | 1010.5 |
| 20260503012336 | 17 | 221 | 8.0 | 14.5 | 0.00 | 0.00 | 0.00 | 75 | 1010.5 |
| 20260503011816 | 17 | 261 | 6.4 | 17.7 | 0.00 | 0.00 | 0.00 | 75 | 1010.4 |
| 20260503011319 | 17 | 273 | 6.4 | 17.7 | 0.00 | 0.00 | 0.00 | 75 | 1010.4 |
| 20260503010824 | 17 | 254 | 8.0 | 17.7 | 0.00 | 0.00 | 0.00 | 74 | 1010.4 |
| 20260503010251 | 17 | 228 | 9.7 | 17.7 | 0.00 | 0.00 | 0.00 | 74 | 1010.5 |
| 20260503005837 | 17 | 240 | 6.4 | 17.7 | 0.00 | 0.00 | 0.00 | 74 | 1010.5 |
| 20260503005257 | 17 | 241 | 9.7 | 16.1 | 0.00 | 0.00 | 0.00 | 74 | 1010.5 |
| 20260503004820 | 17 | 247 | 11.3 | 16.1 | 0.00 | 0.00 | 0.00 | 74 | 1010.4 |
| 20260503004322 | 17 | 245 | 9.7 | 16.1 | 0.00 | 0.00 | 0.00 | 73 | 1010.4 |
| 20260503003803 | 17 | 297 | 8.0 | 19.3 | 0.00 | 0.00 | 0.00 | 74 | 1010.4 |
| 20260503003315 | 17 | 215 | 11.3 | 19.3 | 0.00 | 0.00 | 0.00 | 74 | 1010.6 |
| 20260503002839 | 17 | 237 | 8.0 | 16.1 | 0.00 | 0.00 | 0.00 | 72 | 1010.6 |
| 20260503002314 | 17 | 238 | 9.7 | 19.3 | 0.00 | 0.00 | 0.00 | 73 | 1010.6 |
| 20260503001819 | 17 | 231 | 6.4 | 19.3 | 0.00 | 0.00 | 0.00 | 73 | 1010.8 |
| 20260503001258 | 17 | 240 | 9.7 | 19.3 | 0.00 | 0.00 | 0.00 | 73 | 1010.8 |
| 20260503000805 | 17 | 200 | 9.7 | 17.7 | 0.00 | 0.00 | 0.00 | 72 | 1010.8 |
| 20260503000314 | 17 | 223 | 11.3 | 17.7 | 0.00 | 0.00 | 0.00 | 71 | 1010.7 |
| 20260502235756 | 17 | 267 | 8.0 | 17.7 | 0.00 | 0.00 | 0.00 | 70 | 1010.7 |
| 20260502235325 | 18 | 253 | 9.7 | 17.7 | 0.00 | 0.00 | 0.00 | 70 | 1010.7 |
| 20260502234811 | 17 | 280 | 6.4 | 14.5 | 0.00 | 0.00 | 0.00 | 71 | 1010.8 |
| 20260502234319 | 17 | 250 | 8.0 | 16.1 | 0.00 | 0.00 | 0.00 | 72 | 1010.8 |
| 20260502233802 | 17 | 241 | 8.0 | 16.1 | 0.00 | 0.00 | 0.00 | 72 | 1010.8 |
| 20260502233310 | 17 | 274 | 8.0 | 16.1 | 0.00 | 0.00 | 0.00 | 71 | 1010.9 |
| 20260502232753 | 17 | 224 | 6.4 | 16.1 | 0.00 | 0.00 | 0.00 | 71 | 1010.9 |
| 20260502232259 | 17 | 251 | 6.4 | 19.3 | 0.00 | 0.00 | 0.00 | 71 | 1010.9 |
| 20260502231806 | 17 | 258 | 9.7 | 19.3 | 0.00 | 0.00 | 0.00 | 71 | 1011.0 |
| 20260502231319 | 18 | 229 | 8.0 | 17.7 | 0.00 | 0.00 | 0.00 | 71 | 1011.0 |
| 20260502230753 | 17 | 224 | 4.8 | 17.7 | 0.00 | 0.00 | 0.00 | 72 | 1011.0 |
| 20260502230301 | 17 | 230 | 8.0 | 20.9 | 0.00 | 0.00 | 0.00 | 72 | 1011.0 |
| 20260502225826 | 17 | 239 | 11.3 | 20.9 | 0.00 | 0.00 | 0.00 | 71 | 1011.0 |
| 20260502225301 | 17 | 232 | 9.7 | 19.3 | 0.00 | 0.00 | 0.00 | 71 | 1011.0 |
| 20260502224815 | 17 | 254 | 9.7 | 24.1 | 0.00 | 0.00 | 0.00 | 71 | 1011.5 |
| 20260502224254 | 17 | 237 | 12.9 | 24.1 | 0.00 | 0.00 | 0.00 | 71 | 1011.5 |
| 20260502223802 | 18 | 284 | 12.9 | 22.5 | 0.00 | 0.00 | 0.00 | 70 | 1011.5 |
| 20260502223254 | 18 | 280 | 9.7 | 19.3 | 0.00 | 0.00 | 0.00 | 70 | 1012.0 |
| 20260502222823 | 18 | 261 | 9.7 | 22.5 | 0.00 | 0.00 | 0.00 | 71 | 1012.0 |
| 20260502222259 | 17 | 247 | 12.9 | 22.5 | 0.00 | 0.00 | 0.00 | 71 | 1012.0 |
| 20260502221804 | 18 | 255 | 8.0 | 20.9 | 0.00 | 0.00 | 0.00 | 70 | 1012.4 |
| 20260502221337 | 18 | 277 | 11.3 | 20.9 | 0.00 | 0.00 | 0.00 | 70 | 1012.4 |